This demonstration page uses our WeatherBlox Daily Observations layout. Learn more.

Left ArrowRight Arrow

44.8408, -93.29828

Hourly Observations for May 7, 2015

Temp ( °F °C ) Dew Point ( °F °C ) Humidity (%) Winds ( mph kmh ) Pressure ( in mb ) Visibility ( mi km ) Precip ( " mm )
12:53 am 00:53 Partly Cloudy 65 18.3 58 14.4 78 78 SE 12 19 29.85 1011 10 16 0.00 0.00
1:53 am 01:53 Mostly Cloudy 65 18.3 58 14.4 78 78 SSE 8 13 29.83 1010 10 16 0.00 0.00
2:53 am 02:53 Mostly Cloudy 66 18.9 58 14.4 75 75 SE 10 17 29.80 1009 10 16 0.00 0.00
3:53 am 03:53 Cloudy 65 18.3 57 13.9 76 76 SE 12 19 29.78 1008 10 16 0.00 0.00
4:53 am 04:53 Mostly Cloudy 65 18.3 57 13.9 76 76 SE 10 17 29.76 1008 10 16 0.00 0.00
5:53 am 05:53 Cloudy 67 19.4 56 13.3 68 68 SSE 15 24 29.75 1008 10 16 0.00 0.00
6:53 am 06:53 Cloudy 65 18.3 58 14.4 78 78 SE 12 19 29.74 1007 10 16 0.00 0.03
7:53 am 07:53 Cloudy 66 18.9 58 14.4 75 75 SSE 14 22 29.74 1007 10 16 0.00 0.00
8:53 am 08:53 Cloudy 66 18.9 58 14.4 75 75 SSE 14 22 29.74 1007 8 13 0.00 0.00
9:53 am 09:53 Cloudy 68 20 58 14.4 70 70 S 15 24 29.75 1007 10 16 0.00 0.03
10:53 am 10:53 Cloudy with Light Rain 69 20.6 59 15 70 70 S 16 26 29.74 1007 10 16 0.00 0.03
11:53 am 11:53 Cloudy 70 21.1 58 14.4 66 66 S 15 24 29.75 1007 10 16 0.00 0.03
12:53 pm 12:53 Cloudy with Light Rain 70 21.1 61 16.1 73 73 S 16 26 29.74 1007 7 11 0.02 0.51
1:00 pm 13:00 Cloudy with Light Rain 68 20 63 17 83 83 SSW 17 28 29.74 1007 2 3 0.00 0.00
1:06 pm 13:06 Cloudy with Light Rain 66 19 61 16 83 83 SSW 13 20 29.74 1007 8 13 0.00 0.00
1:53 pm 13:53 Cloudy 68 20 62 16.7 81 81 SSW 6 9 29.73 1007 10 16 0.06 1.52
2:53 pm 14:53 Cloudy 71 21.7 61 16.1 71 71 S 12 19 29.72 1006 10 16 0.00 0.00
3:53 pm 15:53 Mostly Cloudy 72 22.2 63 17.2 73 73 SSW 5 7 29.68 1005 10 16 0.00 0.03
4:53 pm 16:53 Mostly Cloudy 76 24.4 62 16.7 62 62 S 10 17 29.65 1004 10 16 0.00 0.00
5:22 pm 17:22 Cloudy with Thunderstorms 73 23 63 17 69 69 SSW 9 15 29.62 1003 6 10 0.00 0.00
5:39 pm 17:39 Cloudy with Thunderstorms 69 20.6 65 18.3 87 87 SSE 21 33 29.65 1004 3 5 0.14 3.56
5:53 pm 17:53 Cloudy with Thunderstorms 68 20 65 18.3 90 90 S 10 17 29.66 1004 8 13 0.26 6.60
6:08 pm 18:08 Mostly Cloudy 70 21 64 18 83 83 SSW 9 15 29.62 1003 10 16 0.00 0.00
6:53 pm 18:53 Mostly Cloudy 68 20 62 16.7 81 81 SW 8 13 29.67 1005 10 16 0.00 0.03
7:53 pm 19:53 Mostly Cloudy 68 20 61 16.1 78 78 SSW 7 11 29.69 1005 10 16 0.00 0.00
8:53 pm 20:53 Mostly Cloudy with Nearby Thunderstorms 66 18.9 62 16.7 87 87 SW 5 7 29.70 1006 10 16 0.00 0.00
9:01 pm 21:01 Cloudy with Thunderstorms 67 19.4 62 16.7 84 84 SW 6 9 29.71 1006 10 16 0.00 0.00
9:16 pm 21:16 Cloudy with Nearby Thunderstorms 66 19 63 17 88 88 SW 7 11 29.71 1006 8 13 0.00 0.00
9:27 pm 21:27 Cloudy with Light Rain 67 19.4 63 17.2 87 87 WSW 9 15 29.71 1006 9 14 0.01 0.25
9:53 pm 21:53 Mostly Cloudy 66 18.9 62 16.7 87 87 SSW 8 13 29.73 1007 9 14 0.01 0.25
10:38 pm 22:38 Cloudy 64 18 61 16 88 88 SW 6 9 29.74 1007 10 16 0.00 0.00
10:46 pm 22:46 Cloudy 64 18 61 16 88 88 SW 7 11 29.77 1008 10 16 0.00 0.00
10:53 pm 22:53 Cloudy 64 17.8 61 16.1 90 90 SW 7 11 29.75 1008 10 16 0.00 0.00
11:06 pm 23:06 Cloudy with Light Rain 64 18 61 16 88 88 WSW 7 11 29.77 1008 10 16 0.00 0.00
11:53 pm 23:53 Cloudy 64 17.8 60 15.6 87 87 W 14 22 29.76 1008 10 16 0.00 0.03

Powered by AerisWeather